Tracking 22093 objects as of 18-Jan-2021
HD Live streaming from Space Station
objects crossing your sky now

STARLINK-1513

Track STARLINK-1513 now!
10-day predictions
STARLINK-1513 is classified as:


NORAD ID: 45786
Int'l Code: 2020-038BJ
Perigee: 555.7 km
Apogee: 557.9 km
Inclination: 53.0 °
Period: 95.6 minutes
Semi major axis: 6927 km
RCS: Unknown
Launch date: June 13, 2020
Source: United States (US)
Launch site: AIR FORCE EASTERN TEST RANGE (AFETR)
aabbcc
Your satellite tracking list
Your tracking list is empty




NASA's NSSDC Master Catalog

Two Line Element Set (TLE):
1 45786U 20038BJ  21018.08866113  .00000337  00000-0  42295-4 0  9997
2 45786  53.0040 341.0106 0001584  69.7315 290.3843 15.05585782 34831
Source of the keplerian elements: AFSPC